Location: McFarlands Corners
(41.4117°N, 81.3382°W)
Time: 01:03:24
(UTC+00:00)

S-56A Canister/Altair - Visible Passes

Search period start: 07 February 2026 00:00
Search period end: 17 February 2026 00:00
Orbit: 632 x 2485 km, 38.9° (Epoch: 6 February)

Date Brightness Start Highest point End Pass type
(mag) Time Alt. Az. Time Alt. Az. Time Alt. Az.
7 Feb 11.0 07:01:20 19° E 07:01:20 19° E 07:04:35 10° E visible
7 Feb 9.3 08:58:35 72° SSE 08:58:35 72° SSE 09:12:08 10° E visible
7 Feb 9.8 10:55:49 23° W 11:04:20 79° S 11:19:20 10° ESE visible
8 Feb 11.4 06:28:15 10° E 06:28:15 10° E 06:28:23 10° E visible
8 Feb 9.7 08:25:29 56° ESE 08:25:29 56° ESE 08:36:03 10° E visible
8 Feb 9.6 10:22:44 36° W 10:28:37 80° S 10:43:22 10° E visible
9 Feb 10.2 07:52:23 39° E 07:52:23 39° E 07:59:59 10° E visible
9 Feb 9.3 09:49:38 53° WSW 09:53:00 80° S 10:07:20 10° E visible
9 Feb 10.1 11:47:07 10° W 11:59:01 65° SSW 12:13:49 10° SE visible
10 Feb 10.7 07:19:17 25° E 07:19:17 25° E 07:23:55 10° E visible
10 Feb 9.1 09:16:32 75° SW 09:17:29 79° S 09:31:16 10° E visible
10 Feb 9.9 11:13:46 17° W 11:23:19 68° SSW 11:38:02 10° ESE visible
11 Feb 11.1 06:46:11 15° E 06:46:11 15° E 06:47:54 10° E visible
11 Feb 9.3 08:43:26 70° ESE 08:43:26 70° ESE 08:55:11 10° E visible
11 Feb 9.7 10:40:40 28° W 10:47:41 70° SSW 11:02:11 10° ESE visible
12 Feb 9.8 08:10:21 48° E 08:10:21 48° E 08:19:06 10° E visible
12 Feb 9.4 10:07:35 42° W 10:12:06 73° SSW 10:26:14 10° ESE visible
13 Feb 10.4 07:37:17 31° E 07:37:17 31° E 07:43:04 10° E visible
13 Feb 9.1 09:34:31 62° WSW 09:36:36 75° S 09:50:15 10° ESE visible
13 Feb 10.1 11:31:46 12° W 11:42:04 50° SSW 11:55:54 10° SE visible
14 Feb 10.9 07:04:14 19° E 07:04:14 19° E 07:07:04 10° E visible
14 Feb 9.1 09:01:29 75° S 09:01:29 75° S 09:14:13 10° ESE visible
14 Feb 9.9 10:58:44 21° W 11:06:31 53° SSW 11:20:15 10° SE visible
15 Feb 9.5 08:28:29 56° ESE 08:28:29 56° ESE 08:38:11 10° ESE visible
15 Feb 9.6 10:25:44 32° W 10:31:01 56° SSW 10:44:31 10° SE visible
16 Feb 10.1 07:55:31 37° ESE 07:55:31 37° ESE 08:02:10 10° E visible
16 Feb 9.3 09:52:46 48° WSW 09:55:34 59° SSW 10:08:42 10° SE visible
16 Feb 10.6 11:51:10 10° W 12:00:36 31° SW 12:12:16 10° SSE visible
